GW0029 Weather Reports


time (UTC)temp
C
wind
direction
speed
KPH
gust
KPH
rain 1hr
cm
rain 24hr
cm
rain mn
cm
humidity
%
barometer
mb
20260902060503 16 240 3.2 14.5 0.00 0.00 0.00 96 1012.0
20260902060004 16 244 3.2 14.5 0.00 0.00 0.00 96 1012.0
20260902055504 15 265 4.8 16.1 0.00 0.00 0.00 96 1012.0
20260902055005 15 291 4.8 16.1 0.00 0.00 0.00 96 1012.0
20260902054504 15 247 6.4 17.7 0.00 0.00 0.00 95 1012.0
20260902053504 15 205 3.2 12.9 0.00 0.00 0.00 96 1012.0
20260902052503 15 262 4.8 11.3 0.00 0.00 0.00 96 1012.0
20260902052005 15 253 3.2 11.3 0.00 0.00 0.00 96 1012.0
20260902050504 15 224 4.8 14.5 0.00 0.00 0.00 95 1012.0
20260902050007 15 222 3.2 8.0 0.00 0.00 0.00 95 1012.0
20260902045503 15 239 4.8 14.5 0.00 0.00 0.00 95 1012.0
20260902044503 15 230 4.8 11.3 0.00 0.00 0.00 94 1012.0
20260902044005 15 242 6.4 12.9 0.00 0.00 0.00 94 1012.0
20260902043504 15 231 6.4 16.1 0.00 0.00 0.00 94 1012.0
20260902043005 15 216 4.8 16.1 0.00 0.00 0.00 93 1012.0
20260902042503 15 231 4.8 11.3 0.00 0.00 0.00 93 1012.0
20260902042005 15 231 6.4 12.9 0.00 0.00 0.00 93 1012.0
20260902041504 15 216 6.4 12.9 0.00 0.00 0.00 93 1012.0
20260902040503 15 264 4.8 17.7 0.00 0.00 0.00 93 1012.0
20260902040005 15 219 4.8 12.9 0.00 0.00 0.00 93 1012.0
20260902035504 15 221 3.2 12.9 0.00 0.00 0.00 93 1012.0
20260902035005 15 222 3.2 11.3 0.00 0.00 0.00 92 1012.0
20260902034005 15 223 3.2 11.3 0.00 0.00 0.00 92 1013.0
20260902033004 15 249 4.8 14.5 0.00 0.00 0.00 92 1013.0
20260902032503 15 259 3.2 14.5 0.00 0.00 0.00 92 1012.0
20260902032004 15 249 3.2 11.3 0.00 0.00 0.00 91 1012.0
20260902030503 15 234 4.8 16.1 0.00 0.00 0.00 91 1012.0
20260902030005 15 221 4.8 16.1 0.00 0.00 0.00 91 1012.0
20260902025504 15 224 3.2 12.9 0.00 0.00 0.00 91 1011.0
20260902025005 15 243 1.6 11.3 0.00 0.00 0.00 91 1011.0
20260902024005 15 232 3.2 12.9 0.00 0.00 0.00 91 1012.0
20260902023504 14 253 3.2 12.9 0.00 0.00 0.00 91 1012.0
20260902023004 14 266 3.2 8.0 0.00 0.00 0.00 91 1012.0
20260902022503 14 256 3.2 8.0 0.00 0.00 0.00 91 1012.0
20260902022005 14 248 1.6 8.0 0.00 0.00 0.00 91 1012.0
20260902021503 14 260 1.6 6.4 0.00 0.00 0.00 90 1012.0
20260902021005 14 247 1.6 6.4 0.00 0.00 0.00 90 1012.0
20260902020503 14 208 1.6 9.7 0.00 0.00 0.00 90 1012.0
20260902020005 14 223 1.6 9.7 0.00 0.00 0.00 90 1012.0
20260902015503 14 252 1.6 9.7 0.00 0.00 0.00 90 1012.0
20260902015004 14 223 1.6 9.7 0.00 0.00 0.00 90 1012.0
20260902014503 14 241 1.6 8.0 0.00 0.00 0.00 90 1012.0
20260902014004 14 257 1.6 9.7 0.00 0.00 0.00 90 1011.0
20260902013503 14 247 1.6 11.3 0.00 0.00 0.00 89 1011.0
20260902013005 14 265 4.8 12.9 0.00 0.00 0.00 89 1011.0
20260902012503 13 267 4.8 12.9 0.00 0.00 0.00 89 1012.0
20260902012005 13 259 4.8 17.7 0.00 0.00 0.00 89 1012.0
20260902011503 14 257 4.8 17.7 0.00 0.00 0.00 89 1012.0
20260902011005 14 277 4.8 14.5 0.00 0.00 0.00 89 1011.0
20260902010504 14 289 4.8 12.9 0.00 0.00 0.00 89 1011.0
20260902010005 13 270 4.8 12.9 0.00 0.00 0.00 89 1011.0
20260902005504 13 261 4.8 14.5 0.00 0.00 0.00 88 1011.0
20260902005005 13 265 4.8 14.5 0.00 0.00 0.00 88 1011.0
20260902004503 13 255 4.8 19.3 0.00 0.00 0.00 88 1011.0
20260902003503 13 274 4.8 14.5 0.00 0.00 0.00 88 1011.0
20260902003005 13 274 4.8 12.9 0.00 0.00 0.00 88 1011.0
20260902002504 13 284 6.4 16.1 0.00 0.00 0.00 87 1012.0
20260902002004 13 286 8.0 16.1 0.00 0.00 0.00 88 1012.0
20260902000504 14 270 6.4 16.1 0.00 0.00 0.00 86 1012.0
20260902000005 14 272 8.0 12.9 0.00 0.00 0.00 86 1011.0
20260901235504 14 274 8.0 19.3 0.00 0.00 0.00 86 1011.0
20260901235005 15 281 8.0 19.3 0.00 0.00 0.00 85 1011.0
20260901234505 15 276 8.0 17.7 0.00 0.00 0.00 85 1011.0
20260901234005 15 270 11.3 24.1 0.00 0.00 0.00 85 1011.0
20260901233504 15 272 12.9 24.1 0.00 0.00 0.00 85 1011.0
20260901233005 15 274 11.3 19.3 0.00 0.00 0.00 86 1011.0
20260901232503 15 275 12.9 27.4 0.00 0.00 0.00 86 1012.0
20260901232005 15 268 12.9 27.4 0.00 0.00 0.00 86 1012.0
20260901231504 15 268 11.3 25.7 0.00 0.00 0.00 86 1012.0
20260901231005 15 276 9.7 20.9 0.00 0.00 0.00 86 1012.0
20260901230503 15 277 11.3 19.3 0.00 0.00 0.00 86 1012.0
20260901230005 15 270 11.3 22.5 0.00 0.00 0.00 87 1012.0
20260901225504 15 267 11.3 22.5 0.00 0.00 0.00 87 1012.0
20260901224504 15 276 9.7 29.0 0.00 0.00 0.00 87 1012.0
20260901224005 15 279 8.0 17.7 0.00 0.00 0.00 88 1011.0
20260901223503 15 275 9.7 24.1 0.00 0.00 0.00 88 1011.0
20260901223006 15 272 11.3 24.1 0.00 0.00 0.00 88 1011.0
20260901222005 15 278 8.0 16.1 0.00 0.00 0.00 88 1012.0
20260901221503 15 278 11.3 19.3 0.00 0.00 0.00 88 1012.0
20260901221005 15 272 11.3 22.5 0.00 0.00 0.00 87 1011.0
20260901220503 15 268 11.3 22.5 0.00 0.00 0.00 87 1011.0
20260901220005 15 271 9.7 20.9 0.00 0.00 0.00 87 1011.0
20260901215504 15 282 9.7 22.5 0.00 0.00 0.00 88 1012.0
20260901215005 15 273 12.9 22.5 0.00 0.00 0.00 88 1012.0
20260901214504 15 260 11.3 19.3 0.00 0.00 0.00 88 1012.0
20260901214005 15 266 11.3 24.1 0.00 0.00 0.00 88 1012.0
20260901213005 15 267 11.3 27.4 0.00 0.00 0.00 88 1012.0
20260901212503 15 272 11.3 27.4 0.00 0.00 0.00 88 1012.0
20260901211504 15 265 11.3 19.3 0.00 0.00 0.00 88 1012.0
20260901210503 15 256 3.2 16.1 0.00 0.00 0.00 89 1012.0
20260901210005 15 248 0.0 8.0 0.00 0.00 0.00 90 1012.0
20260901205505 15 260 0.0 9.7 0.00 0.00 0.00 90 1012.0
20260901205005 15 260 0.0 9.7 0.00 0.00 0.00 89 1012.0
20260901204005 15 264 1.6 9.7 0.00 0.00 0.00 89 1012.0
20260901203505 15 253 3.2 9.7 0.00 0.00 0.00 89 1012.0
20260901203005 15 258 3.2 11.3 0.00 0.00 0.00 89 1012.0
20260901202004 15 258 4.8 12.9 0.00 0.00 0.00 89 1012.0
20260901201504 15 254 4.8 12.9 0.00 0.00 0.00 89 1012.0
20260901201005 15 263 6.4 12.9 0.00 0.00 0.00 89 1012.0
20260901200005 15 263 6.4 12.9 0.00 0.00 0.00 89 1012.0
20260901195504 15 270 6.4 16.1 0.00 0.00 0.00 89 1012.0
20260901195005 15 270 6.4 16.1 0.00 0.00 0.00 89 1012.0
20260901194503 16 265 6.4 14.5 0.00 0.00 0.00 88 1012.0
20260901194005 16 264 6.4 17.7 0.00 0.00 0.00 88 1012.0
20260901193503 16 271 6.4 17.7 0.00 0.00 0.00 88 1012.0
20260901193004 16 285 6.4 12.9 0.00 0.00 0.00 88 1012.0
20260901192503 16 277 6.4 12.9 0.00 0.00 0.00 88 1012.0
20260901192005 15 266 6.4 12.9 0.00 0.00 0.00 88 1012.0
20260901191504 15 271 6.4 12.9 0.00 0.00 0.00 88 1012.0
20260901191005 16 266 4.8 12.9 0.00 0.00 0.00 87 1012.0
20260901190504 15 272 4.8 16.1 0.00 0.00 0.00 87 1012.0
20260901190005 15 278 8.0 16.1 0.00 0.00 0.00 87 1012.0
20260901185503 15 273 8.0 19.3 0.00 0.00 0.00 87 1012.0
20260901185005 15 275 4.8 19.3 0.00 0.00 0.00 87 1012.0
20260901184503 15 277 3.2 9.7 0.00 0.00 0.00 87 1012.0
20260901184005 15 273 4.8 12.9 0.00 0.00 0.00 87 1012.0
20260901183504 16 282 4.8 12.9 0.00 0.00 0.00 87 1012.0
20260901182504 16 255 1.6 8.0 0.00 0.00 0.00 87 1011.0
20260901182005 16 259 3.2 14.5 0.00 0.00 0.00 87 1011.0
20260901181004 16 273 9.7 19.3 0.00 0.00 0.00 86 1011.0
20260901180503 16 277 8.0 16.1 0.00 0.00 0.00 86 1011.0
20260901180005 16 282 3.2 12.9 0.00 0.00 0.00 86 1011.0
20260901175504 16 277 1.6 14.5 0.00 0.00 0.00 87 1011.0
20260901175005 16 278 3.2 14.5 0.00 0.00 0.00 86 1011.0
20260901173005 17 286 1.6 8.0 0.00 0.00 0.00 85 1011.0
20260901172504 17 271 0.0 8.0 0.00 0.00 0.00 85 1011.0
20260901172005 17 283 0.0 8.0 0.00 0.00 0.00 85 1011.0
20260901171504 17 0 0.0 0.0 0.00 0.00 0.00 86 1011.0
20260901171005 17 0 0.0 0.0 0.00 0.00 0.00 85 1011.0
20260901170504 17 276 0.0 9.7 0.00 0.00 0.00 85 1011.0
20260901170005 17 267 0.0 9.7 0.00 0.00 0.00 84 1011.0
20260901165504 17 272 1.6 16.1 0.00 0.00 0.00 85 1011.0
20260901165005 17 277 3.2 16.1 0.00 0.00 0.00 85 1011.0
20260901164504 17 290 3.2 9.7 0.00 0.00 0.00 85 1011.0
20260901164005 17 273 3.2 12.9 0.00 0.00 0.00 85 1011.0
20260901163503 17 258 4.8 12.9 0.00 0.00 0.00 85 1011.0
20260901163005 17 268 1.6 11.3 0.00 0.00 0.00 85 1011.0
20260901162503 17 258 1.6 6.4 0.00 0.00 0.00 85 1011.0
20260901162005 17 252 1.6 9.7 0.00 0.00 0.00 85 1011.0
20260901161504 17 250 3.2 11.3 0.00 0.00 0.00 85 1011.0
20260901161005 18 254 3.2 12.9 0.00 0.00 0.00 84 1010.0
20260901160503 18 253 3.2 12.9 0.00 0.00 0.00 84 1010.0
20260901160004 18 265 4.8 12.9 0.00 0.00 0.00 84 1010.0
20260901155503 18 279 8.0 16.1 0.00 0.00 0.00 83 1010.0
20260901155005 18 290 8.0 19.3 0.00 0.00 0.00 82 1010.0
20260901154005 18 284 8.0 16.1 0.00 0.00 0.00 82 1010.0
20260901153504 18 267 4.8 16.1 0.00 0.00 0.00 83 1010.0
20260901153005 18 261 4.8 12.9 0.00 0.00 0.00 83 1010.0
20260901152503 18 275 4.8 16.1 0.00 0.00 0.00 83 1010.0
20260901152005 18 279 4.8 16.1 0.00 0.00 0.00 82 1010.0
20260901151504 18 281 6.4 12.9 0.00 0.00 0.00 82 1010.0
20260901151005 18 261 4.8 12.9 0.00 0.00 0.00 82 1010.0
20260901150504 18 270 3.2 11.3 0.00 0.00 0.00 83 1010.0
20260901150005 18 281 6.4 19.3 0.00 0.00 0.00 82 1010.0
20260901145504 18 284 9.7 19.3 0.00 0.00 0.00 80 1010.0
20260901144503 19 270 4.8 14.5 0.00 0.00 0.00 82 1010.0
20260901143503 18 268 4.8 12.9 0.00 0.00 0.00 80 1010.0
20260901143005 19 261 6.4 17.7 0.00 0.00 0.00 82 1010.0
20260901142505 19 275 9.7 17.7 0.00 0.00 0.00 81 1010.0
20260901142005 19 269 8.0 14.5 0.00 0.00 0.00 79 1010.0
20260901141504 19 268 6.4 12.9 0.00 0.00 0.00 81 1010.0
20260901141005 19 276 6.4 12.9 0.00 0.00 0.00 81 1010.0
20260901140503 19 276 3.2 8.0 0.00 0.00 0.00 83 1010.0
20260901140004 18 265 3.2 16.1 0.00 0.00 0.00 84 1010.0
20260901135503 18 268 3.2 16.1 0.00 0.00 0.00 83 1010.0
20260901134503 18 259 3.2 9.7 0.00 0.00 0.00 82 1010.0
20260901134004 19 266 4.8 17.7 0.00 0.00 0.00 82 1010.0
20260901133503 19 265 8.0 17.7 0.00 0.00 0.00 82 1010.0
20260901132005 18 261 3.2 16.1 0.00 0.00 0.00 83 1010.0
20260901131504 18 261 4.8 16.1 0.00 0.00 0.00 83 1010.0
20260901130503 19 271 3.2 16.1 0.00 0.00 0.00 82 1010.0
20260901130005 19 275 3.2 9.7 0.00 0.00 0.00 84 1010.0
20260901125504 18 279 3.2 9.7 0.00 0.00 0.00 83 1010.0
20260901125005 18 276 6.4 16.1 0.00 0.00 0.00 83 1010.0
20260901124503 18 278 8.0 16.1 0.00 0.00 0.00 83 1010.0
20260901124005 18 271 6.4 16.1 0.00 0.00 0.00 82 1010.0
20260901123504 18 271 4.8 14.5 0.00 0.00 0.00 83 1010.0
20260901123005 18 279 4.8 14.5 0.00 0.00 0.00 83 1010.0
20260901122504 19 258 4.8 14.5 0.00 0.00 0.00 84 1010.0
20260901122005 19 268 6.4 22.5 0.00 0.00 0.00 84 1010.0
20260901121504 18 281 6.4 22.5 0.00 0.00 0.00 83 1010.0
20260901121005 18 281 6.4 16.1 0.00 0.00 0.00 83 1010.0
20260901120504 18 282 9.7 22.5 0.00 0.00 0.00 82 1010.0
20260901120005 18 274 9.7 22.5 0.00 0.00 0.00 82 1010.0
20260901115005 18 275 8.0 16.1 0.00 0.00 0.00 84 1009.0
20260901114503 18 268 9.7 16.1 0.00 0.00 0.00 83 1009.0
20260901114006 18 267 9.7 16.1 0.00 0.00 0.00 82 1009.0
20260901113004 19 280 8.0 17.7 0.00 0.00 0.00 82 1009.0
20260901112504 19 285 6.4 19.3 0.00 0.00 0.00 84 1009.0
20260901112005 18 295 6.4 19.3 0.00 0.00 0.00 85 1009.0
20260901111504 18 294 6.4 14.5 0.00 0.13 0.00 85 1009.0
20260901111004 18 265 6.4 17.7 0.00 0.13 0.00 86 1010.0
20260901110504 18 267 6.4 17.7 0.00 0.13 0.00 85 1010.0
20260901110005 18 280 8.0 17.7 0.00 0.13 0.00 85 1010.0
20260901105504 18 271 11.3 19.3 0.00 0.13 0.00 85 1010.0
20260901105005 18 270 8.0 19.3 0.00 0.13 0.00 85 1010.0
20260901104504 18 279 4.8 20.9 0.00 0.13 0.00 86 1010.0
20260901104004 18 284 6.4 20.9 0.00 0.13 0.00 85 1011.0
20260901103504 18 286 8.0 19.3 0.00 0.13 0.00 86 1011.0
20260901102504 18 273 6.4 19.3 0.00 0.13 0.00 87 1010.0
20260901102005 18 276 6.4 17.7 0.00 0.13 0.00 87 1010.0
20260901101503 18 273 4.8 17.7 0.00 0.13 0.00 87 1010.0
20260901101004 18 274 6.4 14.5 0.00 0.13 0.00 86 1010.0
20260901100503 18 277 4.8 14.5 0.00 0.13 0.00 86 1010.0
20260901100005 18 271 6.4 19.3 0.00 0.13 0.00 86 1010.0
20260901095503 18 272 8.0 19.3 0.00 0.13 0.00 86 1009.0
20260901095005 18 266 4.8 12.9 0.00 0.13 0.00 87 1009.0
20260901094504 18 267 6.4 19.3 0.00 0.13 0.00 87 1009.0
20260901093503 18 258 6.4 17.7 0.00 0.13 0.00 87 1009.0
20260901093005 18 270 4.8 16.1 0.00 0.13 0.00 87 1009.0
20260901092005 18 271 8.0 20.9 0.00 0.13 0.00 87 1008.0
20260901091005 18 280 4.8 16.1 0.00 0.13 0.00 88 1008.0
20260901090503 18 272 6.4 16.1 0.00 0.13 0.00 88 1008.0
20260901090005 18 265 6.4 19.3 0.00 0.13 0.00 89 1008.0
20260901085504 18 263 6.4 19.3 0.00 0.13 0.00 89 1008.0
20260901085005 18 257 4.8 14.5 0.00 0.13 0.00 89 1008.0
20260901084504 18 261 3.2 12.9 0.00 0.13 0.00 89 1008.0
20260901084005 18 265 4.8 12.9 0.00 0.13 0.00 89 1008.0
20260901083504 18 262 8.0 16.1 0.00 0.13 0.00 89 1008.0
20260901083005 18 261 8.0 16.1 0.00 0.13 0.00 89 1008.0
20260901082503 18 265 4.8 12.9 0.00 0.13 0.00 89 1006.9
20260901082005 18 287 3.2 12.9 0.00 0.13 0.00 89 1006.9
20260901081504 17 284 3.2 9.7 0.00 0.13 0.00 89 1006.9
20260901080009 17 267 6.4 12.9 0.00 0.13 0.00 89 1008.0
20260901075503 17 266 6.4 17.7 0.00 0.13 0.00 92 1009.0
20260901075005 17 271 4.8 17.7 0.00 0.13 0.00 93 1009.0
20260901074504 17 261 6.4 17.7 0.00 0.13 0.00 94 1009.0
20260901074005 17 253 9.7 17.7 0.00 0.13 0.00 94 1008.0
20260901073503 17 258 6.4 16.1 0.00 0.13 0.00 94 1008.0
20260901073005 17 283 4.8 14.5 0.00 0.13 0.00 95 1008.0
20260901072503 17 269 4.8 14.5 0.00 0.13 0.00 96 1008.0
20260901072005 17 269 4.8 12.9 0.00 0.13 0.00 96 1008.0
20260901071503 17 279 3.2 12.9 0.00 0.13 0.00 96 1008.0
20260901071004 17 280 1.6 9.7 0.00 0.13 0.00 97 1008.0
20260901070005 17 257 4.8 16.1 0.00 0.13 0.00 97 1008.0
20260901065503 17 257 4.8 16.1 0.00 0.13 0.00 97 1008.0
20260901064503 16 267 6.4 14.5 0.00 0.13 0.00 100 1008.0
20260901064004 16 258 6.4 14.5 0.00 0.13 0.00 100 1008.0
20260901063504 16 254 3.2 11.3 0.00 0.13 0.00 100 1008.0
20260901063005 16 262 3.2 11.3 0.00 0.13 0.00 100 1008.0
20260901062503 16 253 3.2 11.3 0.00 0.13 0.00 100 1006.9
20260901062005 16 258 3.2 12.9 0.00 0.13 0.00 100 1006.9
20260901061504 15 268 4.8 12.9 0.00 0.13 0.00 100 1006.9
20260901061005 15 273 4.8 12.9 0.00 0.13 0.00 100 1006.9